QPF
0.00 0.00 0.00 0.00 0.00 0.00 0.00 0.00 0.01 0.01 0.01 0.00 0.00 0.01 0.00 0.00 0.00 0.00 0.00 0.00 0.00 0.00 0.00 0.01 0.01 0.01 0.01 0.01 0.02 0.04 0.05 0.08 0.11 0.16 0.17 0.18 0.16 0.13 0.14 0.14 0.06 0.02 0.02
0.00 0.00 0.00 0.00 0.00 0.00 0.00 0.00 0.01 0.01 0.01 0.01 0.01 0.01 0.01 0.01 0.00 0.00 0.00 0.00 0.00 0.00 0.00 0.01 0.02 0.02 0.04 0.04 0.04 0.05 0.06 0.09 0.14 0.20 0.22 0.21 0.19 0.16 0.13 0.12 0.05 0.03 0.04
0.00 0.00 0.00 0.00 0.00 0.00 0.00 0.00 0.01 0.01 0.01 0.01 0.02 0.02 0.02 0.01 0.00 0.00 0.00 0.00 0.00 0.00 0.00 0.02 0.04 0.05 0.08 0.08 0.07 0.06 0.05 0.05 0.08 0.14 0.19 0.15 0.14 0.15 0.10 0.06 0.06 0.05 0.05
0.00 0.00 0.00 0.00 0.00 0.00 0.00 0.00 0.01 0.01 0.01 0.01 0.02 0.02 0.02 0.01 0.01 0.01 0.00 0.00 0.00 0.00 0.01 0.02 0.06 0.07 0.08 0.08 0.06 0.04 0.02 0.03 0.05 0.09 0.07 0.07 0.09 0.11 0.09 0.03 0.04 0.04 0.04
0.00 0.00 0.00 0.00 0.00 0.00 0.00 0.01 0.01 0.01 0.00 0.01 0.02 0.01 0.01 0.01 0.01 0.01 0.00 0.00 0.00 0.00 0.01 0.03 0.05 0.06 0.05 0.04 0.03 0.02 0.02 0.03 0.06 0.07 0.04 0.04 0.04 0.07 0.06 0.02 0.02 0.02 0.03
0.00 0.00 0.00 0.00 0.00 0.00 0.00 0.00 0.01 0.01 0.01 0.01 0.01 0.01 0.01 0.01 0.01 0.01 0.01 0.00 0.00 0.00 0.01 0.02 0.04 0.05 0.02 0.02 0.02 0.03 0.04 0.05 0.05 0.02 0.03 0.03 0.04 0.06 0.04 0.02 0.01 0.02 0.04
0.00 0.00 0.00 0.00 0.00 0.00 0.00 0.00 0.00 0.01 0.01 0.01 0.01 0.01 0.01 0.01 0.01 0.01 0.00 0.00 0.00 0.00 0.00 0.01 0.02 0.03 0.01 0.01 0.00 0.01 0.02 0.02 0.01 0.01 0.03 0.05 0.05 0.06 0.03 0.02 0.01 0.02 0.03
0.00 0.00 0.00 0.01 0.00 0.00 0.00 0.00 0.00 0.00 0.01 0.01 0.01 0.01 0.01 0.01 0.01 0.01 0.00 0.00 0.00 0.00 0.00 0.00 0.01 0.01 0.00 0.00 0.00 0.00 0.01 0.01 0.01 0.01 0.02 0.04 0.10 0.07 0.02 0.02 0.02 0.02 0.02
0.01 0.00 0.00 0.00 0.00 0.00 0.00 0.00 0.00 0.00 0.01 0.01 0.01 0.01 0.00 0.01 0.01 0.00 0.00 0.00 0.00 0.00 0.00 0.00 0.00 0.00 0.00 0.00 0.00 0.00 0.00 0.00 0.01 0.01 0.01 0.04 0.09 0.06 0.02 0.02 0.02 0.02 0.02
0.01 0.00 0.00 0.00 0.00 0.00 0.00 0.00 0.00 0.00 0.00 0.00 0.00 0.00 0.01 0.01 0.01 0.00 0.00 0.00 0.00 0.00 0.00 0.00 0.00 0.00 0.00 0.00 0.00 0.00 0.00 0.00 0.01 0.01 0.01 0.02 0.04 0.02 0.01 0.01 0.01 0.01 0.01
0.00 0.00 0.00 0.00 0.00 0.00 0.00 0.00 0.00 0.00 0.00 0.00 0.00 0.01 0.00 0.00 0.00 0.00 0.00 0.00 0.00 0.00 0.00 0.00 0.00 0.00 0.00 0.00 0.00 0.00 0.00 0.00 0.00 0.00 0.00 0.01 0.01 0.01 0.00 0.00 0.00 0.00 0.00
0.00 0.00 0.00 0.00 0.00 0.00 0.00 0.00 0.00 0.00 0.00 0.00 0.00 0.00 0.01 0.01 0.00 0.00 0.00 0.00 0.00 0.00 0.00 0.00 0.00 0.00 0.00 0.00 0.00 0.00 0.00 0.01 0.01 0.00 0.00 0.01 0.00 0.00 0.00 0.00 0.00 0.00 0.00
0.00 0.00 0.00 0.00 0.00 0.00 0.00 0.00 0.00 0.00 0.00 0.00 0.00 0.00 0.01 0.01 0.00 0.00 0.00 0.00 0.00 0.00 0.00 0.00 0.00 0.00 0.00 0.00 0.00 0.00 0.01 0.00 0.01 0.00 0.01 0.02 0.02 0.02 0.01 0.00 0.00 0.00 0.00
0.00 0.00 0.01 0.00 0.00 0.01 0.00 0.00 0.00 0.00 0.00 0.00 0.00 0.01 0.01 0.01 0.01 0.00 0.00 0.00 0.00 0.00 0.00 0.00 0.00 0.00 0.00 0.00 0.01 0.03 0.01 0.00 0.00 0.00 0.01 0.03 0.05 0.04 0.03 0.02 0.01 0.01 0.01
0.00 0.00 0.00 0.00 0.00 0.01 0.01 0.00 0.00 0.00 0.00 0.00 0.00 0.01 0.01 0.01 0.01 0.00 0.00 0.00 0.00 0.00 0.00 0.00 0.00 0.00 0.00 0.00 0.03 0.04 0.02 0.01 0.01 0.01 0.01 0.03 0.07 0.08 0.04 0.02 0.01 0.01 0.01
0.00 0.00 0.00 0.00 0.00 0.00 0.00 0.00 0.00 0.00 0.00 0.00 0.00 0.01 0.01 0.01 0.02 0.01 0.01 0.00 0.00 0.01 0.00 0.00 0.00 0.00 0.00 0.00 0.01 0.02 0.02 0.01 0.01 0.02 0.02 0.04 0.07 0.11 0.11 0.06 0.03 0.02 0.02
0.00 0.00 0.00 0.00 0.00 0.00 0.00 0.01 0.00 0.00 0.00 0.00 0.00 0.01 0.01 0.01 0.02 0.01 0.02 0.01 0.00 0.00 0.00 0.00 0.01 0.00 0.00 0.00 0.00 0.00 0.00 0.00 0.01 0.01 0.02 0.02 0.03 0.07 0.10 0.09 0.05 0.04 0.02
0.00 0.00 0.00 0.00 0.00 0.00 0.01 0.01 0.01 0.02 0.03 0.03 0.02 0.02 0.03 0.02 0.01 0.01 0.02 0.02 0.01 0.00 0.00 0.01 0.01 0.01 0.00 0.00 0.00 0.00 0.00 0.00 0.00 0.00 0.01 0.01 0.00 0.01 0.03 0.04 0.03 0.02 0.02
0.00 0.00 0.00 0.00 0.00 0.00 0.01 0.02 0.05 0.08 0.12 0.14 0.12 0.08 0.07 0.06 0.03 0.02 0.02 0.03 0.02 0.01 0.01 0.00 0.01 0.01 0.00 0.00 0.00 0.00 0.00 0.00 0.00 0.00 0.00 0.00 0.00 0.00 0.00 0.00 0.00 0.00 0.00
0.00 0.00 0.00 0.00 0.01 0.02 0.04 0.06 0.12 0.20 0.30 0.44 0.41 0.22 0.11 0.09 0.08 0.05 0.03 0.04 0.04 0.02 0.01 0.01 0.01 0.01 0.01 0.01 0.00 0.00 0.00 0.00 0.00 0.00 0.00 0.00 0.00 0.00 0.00 0.00 0.00 0.00 0.00
0.00 0.00 0.00 0.01 0.01 0.02 0.04 0.08 0.16 0.20 0.23 0.30 0.31 0.24 0.15 0.12 0.13 0.14 0.10 0.08 0.07 0.04 0.02 0.03 0.04 0.04 0.04 0.03 0.02 0.01 0.00 0.00 0.00 0.00 0.00 0.00 0.00 0.00 0.00 0.00 0.00 0.00 0.00
0.00 0.00 0.01 0.01 0.01 0.02 0.05 0.10 0.13 0.13 0.13 0.15 0.17 0.17 0.15 0.13 0.17 0.24 0.23 0.18 0.13 0.09 0.07 0.07 0.08 0.10 0.11 0.09 0.09 0.06 0.02 0.01 0.00 0.00 0.00 0.00 0.00 0.00 0.00 0.00 0.00 0.00 0.00
0.00 0.00 0.01 0.00 0.00 0.02 0.05 0.07 0.07 0.06 0.06 0.08 0.10 0.10 0.12 0.15 0.20 0.27 0.30 0.26 0.19 0.16 0.16 0.16 0.17 0.16 0.15 0.15 0.14 0.11 0.03 0.01 0.00 0.00 0.00 0.00 0.00 0.00 0.00 0.00 0.00 0.00 0.00
0.01 0.01 0.00 0.00 0.00 0.01 0.03 0.03 0.02 0.01 0.02 0.04 0.05 0.07 0.10 0.15 0.19 0.22 0.28 0.31 0.27 0.23 0.24 0.23 0.21 0.18 0.15 0.13 0.12 0.12 0.09 0.06 0.02 0.00 0.00 0.00 0.00 0.00 0.00 0.00 0.00 0.00 0.00
0.01 0.01 0.01 0.00 0.00 0.01 0.01 0.00 0.00 0.01 0.01 0.03 0.05 0.06 0.07 0.09 0.13 0.17 0.23 0.28 0.29 0.30 0.31 0.31 0.23 0.17 0.14 0.11 0.11 0.15 0.19 0.19 0.10 0.03 0.00 0.00 0.00 0.00 0.00 0.00 0.00 0.00 0.00
0.03 0.02 0.02 0.01 0.00 0.00 0.00 0.00 0.00 0.00 0.01 0.02 0.04 0.05 0.04 0.05 0.07 0.10 0.14 0.17 0.19 0.22 0.26 0.28 0.25 0.22 0.16 0.12 0.09 0.10 0.16 0.21 0.20 0.13 0.05 0.01 0.00 0.00 0.00 0.00 0.00 0.00 0.00
MSLP
1011.34 1010.98 1010.76 1010.74 1010.88 1011.13 1011.41 1011.64 1011.77 1011.80 1011.74 1011.67 1011.64 1011.71 1011.88 1012.16 1012.48 1012.79 1013.03 1013.16 1013.19 1013.13 1013.02 1012.91 1012.83 1012.79 1012.80 1012.84 1012.87 1012.89 1012.89 1012.88 1012.89 1012.93 1013.02 1013.14 1013.29 1013.43 1013.53 1013.57 1013.54 1013.45 1013.34
1010.99 1010.76 1010.67 1010.76 1010.97 1011.26 1011.53 1011.74 1011.84 1011.84 1011.78 1011.73 1011.74 1011.87 1012.11 1012.43 1012.78 1013.09 1013.31 1013.42 1013.42 1013.35 1013.23 1013.12 1013.04 1013.00 1013.00 1013.00 1012.99 1012.96 1012.91 1012.88 1012.88 1012.93 1013.05 1013.22 1013.40 1013.56 1013.66 1013.68 1013.62 1013.50 1013.35
1010.57 1010.46 1010.48 1010.67 1010.95 1011.28 1011.57 1011.77 1011.86 1011.87 1011.83 1011.82 1011.89 1012.07 1012.35 1012.69 1013.03 1013.32 1013.50 1013.57 1013.54 1013.46 1013.35 1013.26 1013.21 1013.19 1013.19 1013.18 1013.14 1013.08 1013.00 1012.94 1012.93 1013.00 1013.14 1013.34 1013.55 1013.72 1013.82 1013.83 1013.75 1013.60 1013.45
1010.14 1010.12 1010.25 1010.51 1010.86 1011.22 1011.53 1011.74 1011.84 1011.87 1011.87 1011.91 1012.03 1012.26 1012.56 1012.90 1013.21 1013.45 1013.57 1013.60 1013.55 1013.46 1013.38 1013.34 1013.34 1013.37 1013.40 1013.40 1013.35 1013.26 1013.16 1013.09 1013.07 1013.15 1013.30 1013.51 1013.73 1013.91 1014.01 1014.01 1013.91 1013.76 1013.61
1009.80 1009.84 1010.04 1010.36 1010.75 1011.13 1011.46 1011.67 1011.79 1011.85 1011.89 1011.97 1012.14 1012.40 1012.71 1013.03 1013.30 1013.49 1013.56 1013.54 1013.47 1013.40 1013.36 1013.38 1013.45 1013.54 1013.62 1013.65 1013.61 1013.52 1013.40 1013.32 1013.29 1013.37 1013.52 1013.74 1013.95 1014.12 1014.21 1014.20 1014.10 1013.96 1013.83
1009.60 1009.68 1009.91 1010.27 1010.68 1011.07 1011.39 1011.61 1011.73 1011.80 1011.88 1012.01 1012.21 1012.49 1012.81 1013.11 1013.35 1013.48 1013.50 1013.46 1013.38 1013.33 1013.34 1013.42 1013.57 1013.73 1013.85 1013.92 1013.90 1013.81 1013.69 1013.60 1013.57 1013.63 1013.77 1013.97 1014.17 1014.32 1014.39 1014.37 1014.28 1014.16 1014.06
1009.56 1009.67 1009.92 1010.29 1010.70 1011.08 1011.38 1011.58 1011.70 1011.77 1011.87 1012.02 1012.26 1012.56 1012.88 1013.17 1013.38 1013.48 1013.48 1013.41 1013.34 1013.31 1013.37 1013.50 1013.70 1013.92 1014.09 1014.18 1014.18 1014.10 1013.98 1013.88 1013.84 1013.89 1014.02 1014.19 1014.36 1014.48 1014.53 1014.50 1014.42 1014.32 1014.26
1009.66 1009.79 1010.06 1010.43 1010.83 1011.18 1011.45 1011.62 1011.71 1011.78 1011.88 1012.05 1012.31 1012.63 1012.97 1013.26 1013.46 1013.54 1013.53 1013.46 1013.40 1013.39 1013.47 1013.64 1013.87 1014.11 1014.30 1014.40 1014.41 1014.34 1014.23 1014.13 1014.08 1014.12 1014.22 1014.36 1014.50 1014.59 1014.61 1014.57 1014.50 1014.42 1014.40
1009.82 1009.97 1010.26 1010.64 1011.03 1011.36 1011.60 1011.73 1011.79 1011.84 1011.94 1012.12 1012.40 1012.74 1013.09 1013.40 1013.60 1013.70 1013.69 1013.62 1013.57 1013.56 1013.65 1013.82 1014.04 1014.27 1014.46 1014.56 1014.56 1014.50 1014.39 1014.30 1014.26 1014.29 1014.37 1014.48 1014.59 1014.64 1014.64 1014.60 1014.53 1014.48 1014.49
1009.94 1010.13 1010.46 1010.86 1011.25 1011.56 1011.77 1011.87 1011.91 1011.94 1012.04 1012.23 1012.53 1012.89 1013.26 1013.59 1013.81 1013.92 1013.92 1013.87 1013.81 1013.80 1013.87 1014.01 1014.21 1014.40 1014.55 1014.64 1014.64 1014.57 1014.49 1014.41 1014.38 1014.41 1014.49 1014.58 1014.65 1014.68 1014.66 1014.60 1014.54 1014.52 1014.56
1009.93 1010.18 1010.56 1010.99 1011.40 1011.71 1011.91 1012.00 1012.03 1012.06 1012.17 1012.37 1012.68 1013.06 1013.45 1013.80 1014.04 1014.16 1014.18 1014.14 1014.07 1014.05 1014.09 1014.19 1014.33 1014.48 1014.59 1014.65 1014.64 1014.59 1014.53 1014.48 1014.47 1014.52 1014.59 1014.67 1014.73 1014.74 1014.70 1014.64 1014.59 1014.58 1014.64
1009.75 1010.07 1010.51 1010.98 1011.41 1011.74 1011.95 1012.05 1012.10 1012.15 1012.27 1012.50 1012.82 1013.22 1013.62 1013.97 1014.23 1014.36 1014.39 1014.35 1014.29 1014.25 1014.25 1014.31 1014.40 1014.50 1014.58 1014.62 1014.61 1014.58 1014.55 1014.54 1014.57 1014.64 1014.73 1014.81 1014.85 1014.85 1014.81 1014.75 1014.70 1014.70 1014.77
1009.41 1009.79 1010.27 1010.78 1011.25 1011.61 1011.85 1011.98 1012.06 1012.16 1012.31 1012.56 1012.90 1013.30 1013.70 1014.05 1014.31 1014.45 1014.49 1014.46 1014.40 1014.35 1014.33 1014.36 1014.42 1014.49 1014.55 1014.58 1014.59 1014.60 1014.61 1014.65 1014.72 1014.81 1014.91 1014.99 1015.03 1015.02 1014.98 1014.93 1014.89 1014.91 1014.98
1008.94 1009.36 1009.88 1010.41 1010.90 1011.29 1011.57 1011.76 1011.90 1012.05 1012.25 1012.53 1012.89 1013.28 1013.67 1014.01 1014.25 1014.39 1014.44 1014.42 1014.37 1014.34 1014.33 1014.35 1014.41 1014.47 1014.53 1014.58 1014.62 1014.67 1014.72 1014.80 1014.91 1015.03 1015.14 1015.23 1015.27 1015.26 1015.22 1015.18 1015.16 1015.18 1015.26
1008.43 1008.86 1009.38 1009.92 1010.41 1010.83 1011.15 1011.40 1011.61 1011.83 1012.09 1012.40 1012.77 1013.15 1013.51 1013.82 1014.04 1014.17 1014.23 1014.23 1014.22 1014.22 1014.25 1014.31 1014.39 1014.48 1014.57 1014.65 1014.73 1014.81 1014.91 1015.03 1015.16 1015.30 1015.41 1015.49 1015.53 1015.52 1015.49 1015.46 1015.46 1015.50 1015.58
1007.93 1008.35 1008.84 1009.36 1009.85 1010.28 1010.64 1010.95 1011.24 1011.52 1011.84 1012.18 1012.54 1012.90 1013.23 1013.50 1013.69 1013.82 1013.89 1013.93 1013.98 1014.04 1014.14 1014.25 1014.39 1014.53 1014.66 1014.79 1014.91 1015.03 1015.16 1015.31 1015.45 1015.59 1015.69 1015.76 1015.79 1015.78 1015.76 1015.74 1015.76 1015.82 1015.91
1007.49 1007.88 1008.33 1008.81 1009.28 1009.71 1010.11 1010.48 1010.83 1011.19 1011.54 1011.91 1012.27 1012.60 1012.88 1013.10 1013.27 1013.39 1013.49 1013.58 1013.70 1013.85 1014.02 1014.22 1014.43 1014.64 1014.82 1015.00 1015.15 1015.31 1015.46 1015.61 1015.75 1015.87 1015.96 1016.01 1016.02 1016.01 1015.99 1015.99 1016.03 1016.11 1016.22
1007.11 1007.46 1007.87 1008.31 1008.75 1009.19 1009.62 1010.04 1010.46 1010.86 1011.26 1011.64 1011.98 1012.27 1012.50 1012.69 1012.83 1012.95 1013.08 1013.23 1013.43 1013.67 1013.94 1014.23 1014.52 1014.78 1015.03 1015.24 1015.43 1015.60 1015.76 1015.91 1016.04 1016.14 1016.20 1016.23 1016.22 1016.20 1016.19 1016.21 1016.27 1016.37 1016.49
1006.75 1007.09 1007.47 1007.88 1008.32 1008.77 1009.23 1009.69 1010.16 1010.61 1011.03 1011.40 1011.72 1011.96 1012.15 1012.29 1012.41 1012.54 1012.71 1012.93 1013.20 1013.53 1013.89 1014.26 1014.62 1014.94 1015.23 1015.47 1015.69 1015.88 1016.05 1016.20 1016.32 1016.40 1016.44 1016.44 1016.42 1016.39 1016.38 1016.40 1016.48 1016.59 1016.73
1006.40 1006.74 1007.13 1007.54 1007.99 1008.46 1008.95 1009.45 1009.95 1010.43 1010.86 1011.22 1011.50 1011.70 1011.84 1011.95 1012.05 1012.19 1012.40 1012.67 1013.02 1013.42 1013.86 1014.29 1014.70 1015.07 1015.38 1015.66 1015.89 1016.10 1016.29 1016.45 1016.57 1016.65 1016.68 1016.67 1016.63 1016.60 1016.58 1016.61 1016.69 1016.81 1016.96
1006.05 1006.43 1006.84 1007.28 1007.75 1008.26 1008.78 1009.32 1009.85 1010.34 1010.76 1011.09 1011.33 1011.49 1011.59 1011.66 1011.76 1011.91 1012.14 1012.46 1012.87 1013.32 1013.81 1014.28 1014.72 1015.11 1015.44 1015.74 1016.00 1016.24 1016.46 1016.64 1016.79 1016.89 1016.94 1016.93 1016.89 1016.84 1016.81 1016.83 1016.91 1017.03 1017.18
1005.72 1006.16 1006.62 1007.10 1007.62 1008.15 1008.71 1009.28 1009.81 1010.30 1010.70 1011.00 1011.20 1011.31 1011.37 1011.43 1011.51 1011.67 1011.93 1012.28 1012.71 1013.20 1013.70 1014.18 1014.63 1015.02 1015.37 1015.69 1015.98 1016.27 1016.53 1016.77 1016.98 1017.12 1017.19 1017.20 1017.17 1017.12 1017.08 1017.08 1017.14 1017.25 1017.39
1005.48 1005.97 1006.49 1007.02 1007.57 1008.13 1008.71 1009.28 1009.82 1010.28 1010.65 1010.92 1011.07 1011.15 1011.18 1011.22 1011.30 1011.47 1011.74 1012.10 1012.54 1013.02 1013.51 1013.98 1014.41 1014.79 1015.15 1015.48 1015.81 1016.15 1016.49 1016.80 1017.08 1017.29 1017.42 1017.46 1017.45 1017.39 1017.34 1017.32 1017.35 1017.44 1017.57
1005.42 1005.94 1006.48 1007.03 1007.60 1008.17 1008.75 1009.31 1009.82 1010.26 1010.59 1010.81 1010.93 1010.98 1010.99 1011.02 1011.11 1011.28 1011.55 1011.91 1012.34 1012.80 1013.25 1013.68 1014.07 1014.43 1014.77 1015.12 1015.49 1015.89 1016.30 1016.71 1017.07 1017.36 1017.55 1017.64 1017.64 1017.59 1017.52 1017.47 1017.48 1017.54 1017.66
1005.57 1006.08 1006.60 1007.14 1007.69 1008.25 1008.80 1009.33 1009.80 1010.20 1010.49 1010.68 1010.78 1010.81 1010.81 1010.84 1010.93 1011.11 1011.38 1011.72 1012.12 1012.53 1012.93 1013.30 1013.64 1013.96 1014.29 1014.64 1015.04 1015.49 1015.98 1016.46 1016.91 1017.27 1017.53 1017.67 1017.70 1017.66 1017.58 1017.51 1017.49 1017.53 1017.63
1005.95 1006.39 1006.86 1007.34 1007.83 1008.34 1008.84 1009.31 1009.74 1010.09 1010.36 1010.52 1010.60 1010.63 1010.64 1010.68 1010.79 1010.97 1011.22 1011.55 1011.90 1012.26 1012.60 1012.90 1013.18 1013.45 1013.75 1014.09 1014.51 1014.99 1015.52 1016.07 1016.58 1017.01 1017.33 1017.51 1017.57 1017.54 1017.46 1017.38 1017.34 1017.37 1017.47
Thickness
5800 5801 5799 5795 5793 5790 5789 5787 5785 5783 5781 5779 5776 5775 5773 5771 5770 5768 5767 5766 5765 5765 5765 5765 5766 5766 5767 5768 5769 5771 5772 5773 5773 5773 5773 5774 5775 5775 5776 5777 5777 5778 5780
5806 5803 5800 5797 5794 5791 5789 5788 5785 5783 5781 5779 5776 5774 5772 5770 5768 5766 5765 5764 5763 5762 5762 5762 5762 5763 5763 5764 5766 5768 5770 5771 5771 5771 5771 5771 5772 5772 5772 5773 5775 5776 5777
5807 5804 5801 5798 5795 5792 5790 5788 5786 5784 5781 5779 5776 5774 5771 5768 5766 5764 5763 5762 5760 5759 5759 5759 5758 5758 5759 5760 5763 5765 5767 5768 5769 5769 5770 5769 5769 5769 5769 5771 5772 5773 5774
5807 5804 5801 5798 5795 5792 5790 5788 5786 5783 5781 5779 5776 5773 5770 5767 5765 5763 5761 5760 5758 5757 5755 5755 5754 5754 5754 5756 5758 5762 5764 5766 5767 5768 5768 5767 5767 5767 5768 5769 5770 5771 5771
5806 5803 5801 5798 5795 5793 5790 5788 5785 5783 5780 5778 5775 5772 5769 5766 5763 5761 5759 5758 5756 5754 5753 5752 5751 5750 5751 5753 5755 5758 5761 5764 5765 5766 5766 5766 5766 5766 5767 5768 5768 5769 5769
5804 5803 5800 5798 5795 5793 5790 5788 5786 5783 5780 5777 5774 5771 5768 5764 5761 5759 5757 5755 5754 5752 5751 5749 5748 5748 5749 5750 5752 5755 5758 5761 5762 5763 5763 5764 5765 5765 5766 5767 5767 5767 5768
5803 5802 5800 5798 5795 5793 5791 5788 5785 5782 5779 5776 5773 5769 5766 5763 5760 5757 5754 5753 5751 5750 5749 5748 5747 5746 5747 5748 5750 5753 5756 5758 5759 5759 5760 5761 5763 5764 5764 5765 5765 5766 5766
5803 5801 5799 5797 5795 5793 5790 5788 5785 5782 5778 5775 5771 5768 5765 5762 5759 5756 5753 5750 5749 5748 5747 5746 5746 5746 5746 5746 5748 5750 5752 5754 5755 5756 5757 5759 5761 5762 5762 5763 5763 5764 5765
5803 5800 5798 5796 5794 5792 5790 5787 5784 5781 5777 5773 5770 5766 5763 5760 5757 5754 5751 5748 5747 5746 5745 5745 5745 5745 5745 5745 5746 5748 5750 5751 5751 5752 5754 5756 5758 5759 5759 5760 5761 5762 5763
5800 5799 5797 5795 5793 5791 5789 5786 5784 5780 5776 5772 5768 5764 5761 5758 5755 5752 5749 5747 5745 5744 5743 5743 5743 5743 5743 5743 5744 5746 5747 5748 5749 5749 5750 5753 5755 5756 5756 5757 5758 5759 5760
5797 5797 5796 5794 5792 5790 5787 5785 5782 5779 5775 5771 5767 5763 5759 5756 5753 5750 5748 5745 5744 5742 5741 5741 5741 5741 5742 5743 5743 5744 5745 5746 5746 5747 5748 5750 5752 5753 5754 5755 5756 5756 5757
5794 5795 5795 5794 5791 5789 5786 5784 5780 5777 5774 5770 5766 5762 5757 5754 5751 5748 5746 5744 5743 5741 5740 5739 5739 5739 5740 5741 5742 5743 5743 5744 5744 5746 5747 5749 5750 5751 5752 5752 5753 5753 5753
5800 5798 5797 5794 5792 5788 5786 5782 5778 5775 5772 5768 5764 5760 5756 5752 5749 5747 5744 5743 5741 5740 5738 5737 5737 5737 5738 5738 5738 5740 5741 5741 5742 5744 5745 5747 5748 5749 5749 5749 5749 5750 5750
5802 5801 5800 5796 5792 5789 5785 5781 5777 5773 5770 5766 5763 5758 5754 5750 5747 5745 5743 5741 5740 5739 5737 5736 5736 5736 5735 5735 5735 5735 5737 5738 5739 5741 5742 5743 5744 5745 5745 5745 5746 5746 5746
5803 5803 5802 5799 5793 5789 5784 5780 5776 5772 5769 5766 5762 5758 5754 5750 5747 5745 5742 5740 5739 5738 5736 5735 5735 5735 5734 5733 5732 5732 5732 5733 5735 5736 5737 5738 5739 5740 5740 5741 5741 5742 5742
5805 5804 5802 5799 5795 5789 5784 5780 5776 5772 5769 5766 5763 5759 5755 5752 5748 5745 5743 5740 5738 5737 5735 5734 5733 5733 5732 5730 5728 5728 5728 5729 5729 5730 5731 5732 5733 5734 5735 5736 5736 5737 5737
5807 5805 5802 5799 5795 5789 5785 5780 5777 5773 5769 5765 5763 5761 5757 5753 5749 5745 5742 5739 5737 5736 5734 5731 5729 5729 5728 5726 5723 5723 5724 5724 5724 5724 5725 5726 5726 5727 5728 5729 5730 5731 5731
5809 5804 5802 5800 5795 5790 5785 5780 5777 5772 5768 5765 5763 5760 5758 5755 5751 5746 5743 5740 5737 5734 5731 5728 5726 5723 5722 5720 5718 5718 5719 5719 5718 5718 5718 5719 5720 5720 5721 5722 5723 5725 5726
5810 5805 5801 5800 5795 5790 5785 5780 5776 5771 5767 5764 5761 5759 5757 5754 5751 5747 5744 5741 5737 5733 5729 5727 5723 5720 5716 5714 5714 5714 5714 5713 5713 5713 5712 5712 5713 5714 5715 5716 5717 5718 5720
5810 5805 5801 5798 5794 5789 5783 5776 5771 5767 5764 5762 5759 5758 5756 5753 5750 5746 5742 5740 5736 5730 5727 5725 5720 5717 5713 5711 5710 5708 5708 5709 5709 5708 5707 5707 5707 5708 5709 5710 5711 5712 5714
5805 5801 5797 5793 5789 5784 5777 5770 5765 5761 5760 5759 5757 5756 5753 5750 5746 5742 5739 5736 5733 5729 5726 5722 5717 5712 5708 5706 5701 5697 5700 5704 5704 5704 5703 5703 5702 5703 5704 5705 5706 5707 5708
5800 5796 5793 5790 5786 5782 5776 5770 5765 5761 5758 5757 5755 5753 5750 5747 5743 5739 5734 5732 5730 5726 5722 5719 5714 5707 5704 5702 5696 5689 5686 5691 5697 5700 5699 5698 5698 5698 5699 5700 5701 5702 5703
5793 5791 5789 5785 5781 5776 5771 5765 5759 5754 5751 5748 5747 5747 5746 5743 5739 5735 5732 5728 5725 5723 5718 5716 5713 5707 5699 5697 5697 5690 5682 5681 5687 5692 5694 5695 5695 5695 5696 5696 5697 5697 5699
5787 5785 5782 5778 5773 5770 5766 5761 5755 5749 5745 5746 5745 5744 5742 5738 5734 5731 5728 5725 5722 5719 5715 5712 5710 5706 5701 5693 5692 5693 5691 5689 5684 5683 5688 5691 5692 5692 5693 5694 5694 5695 5695
5780 5776 5773 5769 5766 5763 5761 5757 5753 5748 5746 5744 5742 5739 5736 5733 5730 5727 5724 5721 5718 5715 5712 5708 5706 5703 5700 5694 5691 5688 5687 5687 5687 5683 5680 5684 5687 5690 5691 5692 5693 5693 5693
5770 5766 5761 5758 5756 5757 5756 5753 5749 5745 5742 5738 5735 5732 5729 5727 5725 5722 5720 5717 5714 5710 5707 5704 5702 5700 5697 5694 5692 5690 5687 5684 5683 5682 5680 5680 5682 5687 5690 5690 5691 5692 5692